COSMOS 2460 (732)

Last updated on Sun Apr 12 2026 00:03:25 GMT+0000 (Coordinated Universal Time)

1 36402U 10007C 26101.28863956 -.00000007 00000+0 00000+0 0 9996 2 36402 65.4596 316.7312 0002256 58.2523 124.8779 2.13106225125306
UTC large
Height (km)
Speed (km/s)
/
Latitude / Longitude
Inclination (degrees)
Orbital Period (minutes)
Azimuth
Elevation
Range (km)
Doppler Factor

Next 0 passes for location: London (51.5072 / 0.1276)

Sorry there are no passes over London.
COSMOS 2460 (732)